sat.trackr.live / text

‹ back to catalog

STARLINK-33793

NORAD 64165 · 2025-112V

PAYLOAD ACTIVE UNKNOWN

§ Identity

Operator
Country
US
Launch date
2025-05-27
Launch site
AFWTR
Launch vehicle
Mass (kg)
RCS (m²)

Purposes: comms

External: N2YO · Heavens-Above · Gunter

§ Orbital elements

Epoch: 2026-09-20T14:05:20.892768Z

Period
93.90 min
Inclination
97.2857°
Eccentricity
0.0000569
Mean motion
15.33471271 rev/d
Perigee alt
465.1 km
Apogee alt
465.9 km
Semi-major
6,843.6 km
B*
4.9441e-4
RAAN
310.6901°
Arg perigee
109.9426°
Mean anomaly
250.1878°
Rev number
7,276

§ Raw data

STARLINK-337931 64165U 25112V   26263.58704737  .00015933  00000+0  49441-3 0  99982 64165  97.2857 310.6901 0000569 109.9426 250.1878 15.33471271 72760

JSON: /api/v1/satellites/64165 · /tle

For live sub-satellite position, see the globe view (requires WebGL).

§ Visibility from observer

Set your observer location to see the next 7 days of passes ≥ 10°. The values pass through the URL so the page stays shareable.

No JS? Fill the form by hand. The geolocation button needs JavaScript.